sat.trackr.live / text

‹ back to catalog

STARLINK-3724

NORAD 52305 · 2022-041AW

PAYLOAD ACTIVE UNKNOWN

§ Identity

Operator
Country
US
Launch date
2022-04-21
Launch site
AFETR
Launch vehicle
Mass (kg)
RCS (m²)

Purposes: comms

External: N2YO · Heavens-Above · Gunter

§ Orbital elements

Epoch: 2026-05-25T04:08:06.663840Z

Period
95.44 min
Inclination
53.2138°
Eccentricity
0.0001242
Mean motion
15.08841118 rev/d
Perigee alt
538.9 km
Apogee alt
540.6 km
Semi-major
6,917.9 km
B*
5.3600e-5
RAAN
115.8844°
Arg perigee
82.5507°
Mean anomaly
277.5626°
Rev number
22,605

§ Raw data

STARLINK-37241 52305U 22041AW  26145.17229935  .00000565  00000+0  53600-4 0  99932 52305  53.2138 115.8844 0001242  82.5507 277.5626 15.08841118226053

JSON: /api/v1/satellites/52305 · /tle

For live sub-satellite position, see the globe view (requires WebGL).

§ Visibility from observer

Set your observer location to see the next 7 days of passes ≥ 10°. The values pass through the URL so the page stays shareable.

No JS? Fill the form by hand. The geolocation button needs JavaScript.